Weather History for Jonesboro, AR

Change the Weather History Date:

Tuesday, November 8, 2011

  Actual Average Record
Temperature  
Mean Temperature 66 °F 53 °F  
Max Temperature 74 °F 63 °F 83 °F (2005)
Min Temperature 58 °F 43 °F 18 °F (1991)
Degree Days  
Heating Degree Days 0 12  
Month to date heating degree days 62 87  
Since 1 July heating degree days 237 274  
Cooling Degree Days 1 0  
Month to date cooling degree days 2 1  
Year to date cooling degree days 2216 1825  
Growing Degree Days 15 (Base 50)    
Moisture  
Dew Point 57 °F    
Average Humidity 79    
Maximum Humidity 97    
Minimum Humidity 61    
Precipitation  
Precipitation 1.86 in 0.12 in 2.55 in (1957)
Month to date precipitation 2.17 0.99  
Year to date precipitation 41.99 39.42  
Snow  
Snow 0.00 in - 0.00 in (2002)
Month to date snowfall 0.0  
Since 1 July snowfall 0.0  
Since 1 September snowfall 0.0  
Snow Depth -    
Sea Level Pressure  
Sea Level Pressure 29.92 in    
Wind  
Wind Speed 11 mph (SSE)    
Max Wind Speed 23 mph    
Max Gust Speed 31 mph    
Visibility 7 miles    
Events Rain , Thunderstorm    
T = Trace of Precipitation, MM = Missing Value Source: NWS Daily Summary

Daily Weather History Graph

Daily Weather History Graph

Search for Another Location

Airport:

Trip Planner

Search our weather history database for the weather conditions in past years. The results will help you decide how hot, cold, wet, or windy it might be!

Date:

Astronomy

Nov. 08, 2011 Rise Set
Actual Time 6:31 AM CST 5:00 PM CST
Civil Twilight 6:04 AM CST 5:27 PM CST
Nautical Twilight 5:34 AM CST 5:58 PM CST
Astronomical Twilight 5:04 AM CST 6:28 PM CST
Moon 3:39 PM CST (11/8) 4:32 AM CST (11/8)
Length of Visible Light 11h 22m
Length of Day
10h 29m
Waxing Gibbous, 96% of the Moon is Illuminated
Nov 8
Waxing Gibbous
Nov 10
Full
Nov 18
Last Quarter
Nov 25
New
Dec 2
First Quarter

Hourly Weather History & Observations

Time (CST) Temp. Dew Point Humidity Pressure Visibility Wind Dir Wind Speed Gust Speed Precip Events Conditions
12:53 AM 59.0 °F 50.0 °F 72% 30.06 in 10.0 mi SSE 5.8 mph - N/A   Clear
1:53 AM 59.0 °F 50.0 °F 72% 30.05 in 10.0 mi South 6.9 mph - N/A   Clear
2:53 AM 59.0 °F 48.9 °F 69% 30.04 in 10.0 mi South 5.8 mph - N/A   Clear
3:53 AM 57.9 °F 50.0 °F 75% 30.03 in 10.0 mi SE 11.5 mph - N/A   Scattered Clouds
4:53 AM 60.1 °F 50.0 °F 69% 30.03 in 10.0 mi South 13.8 mph - N/A   Clear
5:53 AM 60.1 °F 50.0 °F 69% 30.02 in 10.0 mi South 13.8 mph - N/A   Scattered Clouds
6:53 AM 57.9 °F 50.0 °F 75% 30.04 in 10.0 mi South 9.2 mph - N/A   Clear
7:53 AM 61.0 °F 52.0 °F 72% 30.04 in 10.0 mi South 10.4 mph - N/A   Clear
8:53 AM 64.9 °F 55.0 °F 70% 30.04 in 10.0 mi South 13.8 mph - N/A   Overcast
9:53 AM 69.1 °F 57.0 °F 65% 30.03 in 10.0 mi South 16.1 mph 24.2 mph N/A   Clear
10:53 AM 72.0 °F 59.0 °F 64% 30.01 in 10.0 mi South 15.0 mph 24.2 mph N/A   Mostly Cloudy
11:20 AM 71.6 °F 57.2 °F 60% 30.01 in 10.0 mi SSW 16.1 mph 24.2 mph N/A   Overcast
11:50 AM 71.6 °F 57.2 °F 60% 29.99 in 10.0 mi SSW 23.0 mph 31.1 mph N/A   Mostly Cloudy
11:53 AM 71.1 °F 57.9 °F 63% 29.99 in 10.0 mi SSW 17.3 mph 31.1 mph N/A   Mostly Cloudy
12:06 PM 71.6 °F 59.0 °F 64% 29.99 in 10.0 mi SSW 18.4 mph 25.3 mph N/A   Overcast
12:53 PM 70.0 °F 60.1 °F 71% 29.98 in 10.0 mi SSW 16.1 mph 20.7 mph N/A   Overcast
1:00 PM 71.6 °F 60.8 °F 69% 29.98 in 10.0 mi SSW 15.0 mph - N/A   Mostly Cloudy
1:53 PM 73.4 °F 59.0 °F 61% 29.95 in 10.0 mi South 11.5 mph - N/A   Mostly Cloudy
2:53 PM 73.0 °F 59.0 °F 61% 29.91 in 10.0 mi SSW 9.2 mph - N/A   Mostly Cloudy
3:53 PM 73.0 °F 59.0 °F 61% 29.89 in 10.0 mi South 11.5 mph - N/A   Mostly Cloudy
4:53 PM 72.0 °F 59.0 °F 64% 29.88 in 10.0 mi SSE 5.8 mph - N/A   Overcast
5:53 PM 72.0 °F 59.0 °F 64% 29.88 in 10.0 mi SE 9.2 mph - N/A   Overcast
6:53 PM 71.1 °F 57.9 °F 63% 29.84 in 10.0 mi SE 12.7 mph - N/A   Scattered Clouds
7:53 PM 71.1 °F 57.0 °F 61% 29.82 in 10.0 mi SSE 13.8 mph - 0.00 in Rain Light Rain
8:16 PM 71.6 °F 57.2 °F 60% 29.82 in 10.0 mi SSE 16.1 mph 24.2 mph 0.00 in Thunderstorm Overcast
8:31 PM 71.6 °F 57.2 °F 60% 29.83 in 10.0 mi South 17.3 mph 25.3 mph N/A   Mostly Cloudy
8:53 PM 70.0 °F 57.9 °F 65% 29.86 in 10.0 mi SW 18.4 mph 25.3 mph 0.00 in Rain , Thunderstorm Light Thunderstorms and Rain
8:59 PM 68.0 °F 60.8 °F 78% 29.86 in 4.0 mi WNW 11.5 mph 23.0 mph 0.07 in Rain , Thunderstorm Heavy Thunderstorms and Rain
9:11 PM 66.2 °F 60.8 °F 83% 29.86 in 2.0 mi Variable 6.9 mph 20.7 mph 0.23 in Rain , Thunderstorm Heavy Thunderstorms and Rain
9:13 PM 64.4 °F 60.8 °F 88% 29.85 in 1.8 mi Variable 4.6 mph 20.7 mph 0.26 in Rain , Thunderstorm Heavy Thunderstorms and Rain
9:32 PM 62.6 °F 59.0 °F 88% 29.87 in 1.0 mi NNW 10.4 mph 27.6 mph 0.61 in Rain , Thunderstorm Heavy Rain
9:36 PM 62.6 °F 59.0 °F 88% 29.88 in 2.0 mi NNW 10.4 mph 20.7 mph 0.63 in Rain Heavy Rain
9:44 PM 62.6 °F 59.0 °F 88% 29.88 in 4.0 mi NW 9.2 mph - 0.68 in Rain Rain
9:53 PM 62.1 °F 57.9 °F 86% 29.88 in 2.0 mi NNW 5.8 mph - 0.79 in Rain Heavy Rain
10:06 PM 60.8 °F 57.2 °F 88% 29.88 in 3.0 mi Calm Calm - 0.13 in Rain Heavy Rain
10:14 PM 60.8 °F 57.2 °F 88% 29.88 in 2.0 mi Calm Calm - 0.21 in Rain Heavy Rain
10:26 PM 60.8 °F 57.2 °F 88% 29.86 in 3.0 mi East 4.6 mph - 0.28 in Rain Heavy Rain
10:43 PM 60.8 °F 57.2 °F 88% 29.86 in 2.5 mi SE 8.1 mph - 0.43 in Rain Heavy Rain
10:50 PM 62.6 °F 59.0 °F 88% 29.86 in 3.0 mi ESE 6.9 mph - 0.48 in Rain Heavy Rain
10:53 PM 60.8 °F 59.0 °F 94% 29.85 in 3.0 mi ESE 5.8 mph - N/A Rain Heavy Rain
11:14 PM 60.8 °F 59.0 °F 94% 29.85 in 5.0 mi East 4.6 mph - N/A Rain Heavy Rain
11:19 PM 60.8 °F 59.0 °F 94% 29.84 in 2.5 mi ENE 3.5 mph - 0.16 in Rain Heavy Rain
11:27 PM 62.6 °F 59.0 °F 88% 29.83 in 1.8 mi ENE 5.8 mph - 0.29 in Rain Heavy Rain
11:35 PM 62.6 °F 59.0 °F 88% 29.85 in 2.0 mi SE 3.5 mph - 0.37 in Rain Heavy Rain
11:43 PM 62.6 °F 59.0 °F 88% 29.84 in 1.5 mi SE 8.1 mph - 0.54 in Rain Heavy Rain
11:50 PM 62.6 °F 60.8 °F 94% 29.83 in 3.0 mi SE 3.5 mph - 0.56 in Rain Rain
11:53 PM 62.1 °F 60.1 °F 93% 29.83 in 6.0 mi SSE 3.5 mph - 0.56 in Rain Light Rain